Year,Month,Day,Hour,Minute,Value (Times are PST for windspeed in km/hr)
2008,08,30,00,00,4.40
2008,08,30,00,01,6.40
2008,08,30,00,02,5.00
2008,08,30,00,03,10.80
2008,08,30,00,04,4.90
2008,08,30,00,05,3.60
2008,08,30,00,06,6.80
2008,08,30,00,07,6.00
2008,08,30,00,08,5.90
2008,08,30,00,09,11.10
2008,08,30,00,10,7.80
2008,08,30,00,11,3.00
2008,08,30,00,12,5.00
2008,08,30,00,13,4.00
2008,08,30,00,14,4.20
2008,08,30,00,15,2.20
2008,08,30,00,16,2.40
2008,08,30,00,17,2.80
2008,08,30,00,18,3.50
2008,08,30,00,19,2.80
2008,08,30,00,20,4.60
2008,08,30,00,21,3.30
2008,08,30,00,22,3.40
2008,08,30,00,23,2.80
2008,08,30,00,24,4.50
2008,08,30,00,25,1.80
2008,08,30,00,26,3.60
2008,08,30,00,27,3.70
2008,08,30,00,28,2.50
2008,08,30,00,29,5.80
2008,08,30,00,30,4.30
2008,08,30,00,31,0.90
2008,08,30,00,32,2.90
2008,08,30,00,33,3.70
2008,08,30,00,34,1.80
2008,08,30,00,35,0.80
2008,08,30,00,36,2.10
2008,08,30,00,37,2.50
2008,08,30,00,38,3.10
2008,08,30,00,39,2.30
2008,08,30,00,40,2.90
2008,08,30,00,41,5.60
2008,08,30,00,42,2.90
2008,08,30,00,43,1.10
2008,08,30,00,44,2.90
2008,08,30,00,45,3.00
2008,08,30,00,46,4.10
2008,08,30,00,47,1.30
2008,08,30,00,48,3.00
2008,08,30,00,49,4.50
2008,08,30,00,50,3.80
2008,08,30,00,51,4.00
2008,08,30,00,52,1.90
2008,08,30,00,53,2.70
2008,08,30,00,54,3.10
2008,08,30,00,55,4.30
2008,08,30,00,56,1.90
2008,08,30,00,57,3.50
2008,08,30,00,58,5.10
2008,08,30,00,59,2.50
2008,08,30,01,00,3.20
2008,08,30,01,01,4.10
2008,08,30,01,02,3.20
2008,08,30,01,03,3.00
2008,08,30,01,04,3.20
2008,08,30,01,05,1.20
2008,08,30,01,06,2.60
2008,08,30,01,07,3.40
2008,08,30,01,08,3.60
2008,08,30,01,09,2.30
2008,08,30,01,10,3.30
2008,08,30,01,11,1.40
2008,08,30,01,12,1.80
2008,08,30,01,13,3.80
2008,08,30,01,14,2.60
2008,08,30,01,15,5.80
2008,08,30,01,16,3.60
2008,08,30,01,17,3.80
2008,08,30,01,18,3.50
2008,08,30,01,19,4.60
2008,08,30,01,20,2.80
2008,08,30,01,21,4.80
2008,08,30,01,22,0.70
2008,08,30,01,23,2.20
2008,08,30,01,24,1.90
2008,08,30,01,25,1.40
2008,08,30,01,26,1.50
2008,08,30,01,27,5.00
2008,08,30,01,28,3.40
2008,08,30,01,29,2.80
2008,08,30,01,30,2.30
2008,08,30,01,31,1.10
2008,08,30,01,32,6.90
2008,08,30,01,33,9.90
2008,08,30,01,34,3.70
2008,08,30,01,35,2.60
2008,08,30,01,36,2.00
2008,08,30,01,37,4.20
2008,08,30,01,38,2.80
2008,08,30,01,39,2.70
2008,08,30,01,40,2.50
2008,08,30,01,41,1.80
2008,08,30,01,42,3.40
2008,08,30,01,43,1.20
2008,08,30,01,44,1.80
2008,08,30,01,45,1.30
2008,08,30,01,46,1.40
2008,08,30,01,47,1.90
2008,08,30,01,48,3.90
2008,08,30,01,49,2.80
2008,08,30,01,50,2.60
2008,08,30,01,51,1.90
2008,08,30,01,52,4.40
2008,08,30,01,53,1.90
2008,08,30,01,54,2.60
2008,08,30,01,55,1.10
2008,08,30,01,56,3.90
2008,08,30,01,57,3.20
2008,08,30,01,58,2.90
2008,08,30,01,59,3.40
2008,08,30,02,00,2.20
2008,08,30,02,01,2.50
2008,08,30,02,02,3.60
2008,08,30,02,03,2.70
2008,08,30,02,04,2.40
2008,08,30,02,05,2.80
2008,08,30,02,06,4.40
2008,08,30,02,07,3.10
2008,08,30,02,08,4.30
2008,08,30,02,09,0.40
2008,08,30,02,10,3.40
2008,08,30,02,11,2.60
2008,08,30,02,12,1.60
2008,08,30,02,13,0.90
2008,08,30,02,14,1.90
2008,08,30,02,15,4.50
2008,08,30,02,16,3.40
2008,08,30,02,17,2.50
2008,08,30,02,18,4.70
2008,08,30,02,19,3.50
2008,08,30,02,20,4.80
2008,08,30,02,21,4.10
2008,08,30,02,22,5.50
2008,08,30,02,23,2.80
2008,08,30,02,24,0.30
2008,08,30,02,25,3.40
2008,08,30,02,26,2.00
2008,08,30,02,27,4.40
2008,08,30,02,28,1.40
2008,08,30,02,29,3.00
2008,08,30,02,30,2.60
2008,08,30,02,31,0.50
2008,08,30,02,32,1.90
2008,08,30,02,33,2.50
2008,08,30,02,34,1.90
2008,08,30,02,35,1.30
2008,08,30,02,36,6.70
2008,08,30,02,37,4.30
2008,08,30,02,38,4.00
2008,08,30,02,39,1.70
2008,08,30,02,40,2.10
2008,08,30,02,41,3.50
2008,08,30,02,42,4.40
2008,08,30,02,43,2.50
2008,08,30,02,44,3.50
2008,08,30,02,45,3.90
2008,08,30,02,46,1.90
2008,08,30,02,47,3.50
2008,08,30,02,48,4.10
2008,08,30,02,49,3.30
2008,08,30,02,50,4.90
2008,08,30,02,51,2.40
2008,08,30,02,52,2.20
2008,08,30,02,53,0.50
2008,08,30,02,54,4.70
2008,08,30,02,55,2.00
2008,08,30,02,56,2.70
2008,08,30,02,57,0.60
2008,08,30,02,58,3.90
2008,08,30,02,59,4.90
2008,08,30,03,00,4.60
2008,08,30,03,01,2.80
2008,08,30,03,02,5.30
2008,08,30,03,03,4.60
2008,08,30,03,04,2.10
2008,08,30,03,05,4.60
2008,08,30,03,06,3.80
2008,08,30,03,07,5.30
2008,08,30,03,08,5.50
2008,08,30,03,09,4.40
2008,08,30,03,10,3.50
2008,08,30,03,11,1.10
2008,08,30,03,12,2.80
2008,08,30,03,13,5.10
2008,08,30,03,14,4.80
2008,08,30,03,15,4.50
2008,08,30,03,16,6.70
2008,08,30,03,17,3.80
2008,08,30,03,18,9.70
2008,08,30,03,19,5.00
2008,08,30,03,20,5.80
2008,08,30,03,21,4.10
2008,08,30,03,22,6.20
2008,08,30,03,23,5.90
2008,08,30,03,24,7.00
2008,08,30,03,25,10.90
2008,08,30,03,26,5.30
2008,08,30,03,27,1.90
2008,08,30,03,28,4.90
2008,08,30,03,29,8.60
2008,08,30,03,30,5.20
2008,08,30,03,31,5.60
2008,08,30,03,32,5.60
2008,08,30,03,33,7.40
2008,08,30,03,34,6.40
2008,08,30,03,35,6.10
2008,08,30,03,36,6.80
2008,08,30,03,37,7.00
2008,08,30,03,38,4.50
2008,08,30,03,39,4.10
2008,08,30,03,40,5.10
2008,08,30,03,41,4.30
2008,08,30,03,42,3.40
2008,08,30,03,43,6.40
2008,08,30,03,44,3.30
2008,08,30,03,45,4.70
2008,08,30,03,46,6.90
2008,08,30,03,47,3.00
2008,08,30,03,48,3.80
2008,08,30,03,49,5.50
2008,08,30,03,50,2.60
2008,08,30,03,51,4.30
2008,08,30,03,52,5.10
2008,08,30,03,53,3.20
2008,08,30,03,54,5.50
2008,08,30,03,55,6.20
2008,08,30,03,56,6.10
2008,08,30,03,57,3.00
2008,08,30,03,58,4.70
2008,08,30,03,59,1.50
2008,08,30,04,00,0.20
2008,08,30,04,01,1.00
2008,08,30,04,02,2.20
2008,08,30,04,03,0.20
2008,08,30,04,04,0.10
2008,08,30,04,05,0.20
2008,08,30,04,06,4.00
2008,08,30,04,07,3.60
2008,08,30,04,08,1.80
2008,08,30,04,09,0.90
2008,08,30,04,10,0.20
2008,08,30,04,11,0.20
2008,08,30,04,12,2.00
2008,08,30,04,13,2.20
2008,08,30,04,14,0.50
2008,08,30,04,15,0.60
2008,08,30,04,16,0.30
2008,08,30,04,17,2.60
2008,08,30,04,18,0.80
2008,08,30,04,19,2.00
2008,08,30,04,20,1.90
2008,08,30,04,21,0.80
2008,08,30,04,22,0.40
2008,08,30,04,23,1.60
2008,08,30,04,24,0.20
2008,08,30,04,25,0.60
2008,08,30,04,26,0.10
2008,08,30,04,27,0.90
2008,08,30,04,28,0.20
2008,08,30,04,29,0.50
2008,08,30,04,30,1.30
2008,08,30,04,31,1.00
2008,08,30,04,32,0.60
2008,08,30,04,33,0.10
2008,08,30,04,34,1.70
2008,08,30,04,35,2.20
2008,08,30,04,36,2.00
2008,08,30,04,37,2.50
2008,08,30,04,38,4.00
2008,08,30,04,39,1.00
2008,08,30,04,40,0.70
2008,08,30,04,41,2.50
2008,08,30,04,42,2.60
2008,08,30,04,43,1.00
2008,08,30,04,44,1.10
2008,08,30,04,45,1.00
2008,08,30,04,46,2.20
2008,08,30,04,47,1.20
2008,08,30,04,48,5.20
2008,08,30,04,49,0.30
2008,08,30,04,50,2.80
2008,08,30,04,51,2.10
2008,08,30,04,52,2.10
2008,08,30,04,53,1.00
2008,08,30,04,54,1.50
2008,08,30,04,55,1.80
2008,08,30,04,56,0.00
2008,08,30,04,57,0.20
2008,08,30,04,58,0.00
2008,08,30,04,59,0.30
2008,08,30,05,00,1.30
2008,08,30,05,01,0.20
2008,08,30,05,02,0.20
2008,08,30,05,03,0.70
2008,08,30,05,04,0.70
2008,08,30,05,05,2.20
2008,08,30,05,06,1.20
2008,08,30,05,07,2.70
2008,08,30,05,08,6.40
2008,08,30,05,09,3.70
2008,08,30,05,10,2.20
2008,08,30,05,11,3.50
2008,08,30,05,12,5.00
2008,08,30,05,13,3.40
2008,08,30,05,14,6.60
2008,08,30,05,15,1.50
2008,08,30,05,16,1.40
2008,08,30,05,17,1.00
2008,08,30,05,18,1.70
2008,08,30,05,19,0.40
2008,08,30,05,20,0.70
2008,08,30,05,21,0.90
2008,08,30,05,22,1.20
2008,08,30,05,23,2.10
2008,08,30,05,24,0.20
2008,08,30,05,25,0.30
2008,08,30,05,26,0.10
2008,08,30,05,27,0.20
2008,08,30,05,28,0.40
2008,08,30,05,29,0.50
2008,08,30,05,30,1.70
2008,08,30,05,31,2.80
2008,08,30,05,32,3.40
2008,08,30,05,33,3.80
2008,08,30,05,34,1.10
2008,08,30,05,35,1.60
2008,08,30,05,36,1.50
2008,08,30,05,37,1.70
2008,08,30,05,38,2.30
2008,08,30,05,39,1.70
2008,08,30,05,40,4.20
2008,08,30,05,41,1.50
2008,08,30,05,42,1.40
2008,08,30,05,43,1.90
2008,08,30,05,44,1.40
2008,08,30,05,45,0.20
2008,08,30,05,46,1.30
2008,08,30,05,47,4.40
2008,08,30,05,48,1.60
2008,08,30,05,49,0.40
2008,08,30,05,50,2.90
2008,08,30,05,51,2.40
2008,08,30,05,52,3.50
2008,08,30,05,53,3.90
2008,08,30,05,54,4.70
2008,08,30,05,55,4.80
2008,08,30,05,56,3.60
2008,08,30,05,57,2.50
2008,08,30,05,58,4.00
2008,08,30,05,59,2.70
2008,08,30,06,00,4.30
2008,08,30,06,01,4.30
2008,08,30,06,02,1.00
2008,08,30,06,03,3.30
2008,08,30,06,04,4.50
2008,08,30,06,05,4.10
2008,08,30,06,06,2.60
2008,08,30,06,07,0.60
2008,08,30,06,08,3.50
2008,08,30,06,09,1.40
2008,08,30,06,10,4.60
2008,08,30,06,11,4.50
2008,08,30,06,12,2.80
2008,08,30,06,13,4.00
2008,08,30,06,14,0.50
2008,08,30,06,15,1.10
2008,08,30,06,16,0.90
2008,08,30,06,17,1.60
2008,08,30,06,18,3.40
2008,08,30,06,19,0.50
2008,08,30,06,20,3.90
2008,08,30,06,21,1.80
2008,08,30,06,22,1.20
2008,08,30,06,23,3.00
2008,08,30,06,24,1.10
2008,08,30,06,25,3.10
2008,08,30,06,26,3.10
2008,08,30,06,27,1.90
2008,08,30,06,28,3.10
2008,08,30,06,29,0.10
2008,08,30,06,30,0.70
2008,08,30,06,31,1.00
2008,08,30,06,32,0.40
2008,08,30,06,33,2.10
2008,08,30,06,34,2.60
2008,08,30,06,35,2.30
2008,08,30,06,36,0.60
2008,08,30,06,37,0.20
2008,08,30,06,38,0.60
2008,08,30,06,39,0.40
2008,08,30,06,40,1.10
2008,08,30,06,41,1.70
2008,08,30,06,42,2.30
2008,08,30,06,43,2.10
2008,08,30,06,44,2.10
2008,08,30,06,45,1.50
2008,08,30,06,46,2.60
2008,08,30,06,47,3.30
2008,08,30,06,48,1.80
2008,08,30,06,49,3.20
2008,08,30,06,50,1.70
2008,08,30,06,51,1.30
2008,08,30,06,52,0.30
2008,08,30,06,53,2.80
2008,08,30,06,54,2.30
2008,08,30,06,55,1.30
2008,08,30,06,56,3.80
2008,08,30,06,57,2.00
2008,08,30,06,58,3.80
2008,08,30,06,59,2.80
2008,08,30,07,00,0.30
2008,08,30,07,01,1.00
2008,08,30,07,02,3.90
2008,08,30,07,03,2.80
2008,08,30,07,04,5.00
2008,08,30,07,05,5.40
2008,08,30,07,06,0.80
2008,08,30,07,07,1.30
2008,08,30,07,08,3.60
2008,08,30,07,09,2.10
2008,08,30,07,10,3.10
2008,08,30,07,11,1.70
2008,08,30,07,12,2.00
2008,08,30,07,13,2.30
2008,08,30,07,14,1.20
2008,08,30,07,15,2.10
2008,08,30,07,16,3.10
2008,08,30,07,17,2.30
2008,08,30,07,18,2.90
2008,08,30,07,19,4.00
2008,08,30,07,20,2.90
2008,08,30,07,21,1.70
2008,08,30,07,22,1.40
2008,08,30,07,23,1.00
2008,08,30,07,24,4.40
2008,08,30,07,25,2.40
2008,08,30,07,26,2.30
2008,08,30,07,27,1.20
2008,08,30,07,28,7.20
2008,08,30,07,29,4.30
2008,08,30,07,30,1.20
2008,08,30,07,31,4.90
2008,08,30,07,32,5.60
2008,08,30,07,33,4.00
2008,08,30,07,34,6.80
2008,08,30,07,35,5.70
2008,08,30,07,36,2.20
2008,08,30,07,37,2.90
2008,08,30,07,38,3.60
2008,08,30,07,39,4.90
2008,08,30,07,40,5.00
2008,08,30,07,41,4.00
2008,08,30,07,42,4.80
2008,08,30,07,43,4.10
2008,08,30,07,44,5.00
2008,08,30,07,45,5.60
2008,08,30,07,46,2.60
2008,08,30,07,47,4.00
2008,08,30,07,48,2.90
2008,08,30,07,49,3.00
2008,08,30,07,50,3.60
2008,08,30,07,51,4.80
2008,08,30,07,52,4.50
2008,08,30,07,53,4.60
2008,08,30,07,54,4.60
2008,08,30,07,55,2.20
2008,08,30,07,56,4.50
2008,08,30,07,57,4.40
2008,08,30,07,58,5.10
2008,08,30,07,59,5.60
2008,08,30,08,00,3.70
2008,08,30,08,01,3.20
2008,08,30,08,02,0.60
2008,08,30,08,03,0.10
2008,08,30,08,04,0.30
2008,08,30,08,05,5.00
2008,08,30,08,06,0.10
2008,08,30,08,07,3.00
2008,08,30,08,08,1.00
2008,08,30,08,09,0.20
2008,08,30,08,10,0.00
2008,08,30,08,11,0.90
2008,08,30,08,12,0.10
2008,08,30,08,13,0.20
2008,08,30,08,14,0.10
2008,08,30,08,15,0.40
2008,08,30,08,16,0.10
2008,08,30,08,17,0.00
2008,08,30,08,18,0.70
2008,08,30,08,19,0.00
2008,08,30,08,20,0.70
2008,08,30,08,21,0.20
2008,08,30,08,22,0.70
2008,08,30,08,23,1.60
2008,08,30,08,24,0.30
2008,08,30,08,25,0.40
2008,08,30,08,26,1.60
2008,08,30,08,27,0.80
2008,08,30,08,28,2.10
2008,08,30,08,29,1.20
2008,08,30,08,30,1.10
2008,08,30,08,31,0.90
2008,08,30,08,32,1.10
2008,08,30,08,33,1.30
2008,08,30,08,34,3.60
2008,08,30,08,35,1.00
2008,08,30,08,36,3.70
2008,08,30,08,37,1.00
2008,08,30,08,38,0.70
2008,08,30,08,39,4.30
2008,08,30,08,40,2.70
2008,08,30,08,41,3.50
2008,08,30,08,42,3.60
2008,08,30,08,43,2.00
2008,08,30,08,44,2.10
2008,08,30,08,45,2.10
2008,08,30,08,46,2.80
2008,08,30,08,47,2.00
2008,08,30,08,48,0.30
2008,08,30,08,49,0.10
2008,08,30,08,50,2.30
2008,08,30,08,51,3.20
2008,08,30,08,52,2.60
2008,08,30,08,53,0.30
2008,08,30,08,54,4.40
2008,08,30,08,55,0.20
2008,08,30,08,56,3.40
2008,08,30,08,57,1.60
2008,08,30,08,58,3.30
2008,08,30,08,59,3.90
2008,08,30,09,00,3.50
2008,08,30,09,01,3.80
2008,08,30,09,02,1.10
2008,08,30,09,03,0.10
2008,08,30,09,04,3.70
2008,08,30,09,05,5.70
2008,08,30,09,06,3.20
2008,08,30,09,07,1.40
2008,08,30,09,08,5.20
2008,08,30,09,09,4.10
2008,08,30,09,10,4.50
2008,08,30,09,11,1.60
2008,08,30,09,12,5.90
2008,08,30,09,13,5.30
2008,08,30,09,14,5.30
2008,08,30,09,15,3.70
2008,08,30,09,16,1.70
2008,08,30,09,17,4.30
2008,08,30,09,18,2.80
2008,08,30,09,19,2.80
2008,08,30,09,20,2.70
2008,08,30,09,21,0.80
2008,08,30,09,22,1.20
2008,08,30,09,23,1.00
2008,08,30,09,24,2.40
2008,08,30,09,25,2.80
2008,08,30,09,26,3.40
2008,08,30,09,27,2.90
2008,08,30,09,28,0.30
2008,08,30,09,29,1.20
2008,08,30,09,30,3.70
2008,08,30,09,31,1.00
2008,08,30,09,32,2.50
2008,08,30,09,33,3.10
2008,08,30,09,34,1.50
2008,08,30,09,35,1.10
2008,08,30,09,36,5.10
2008,08,30,09,37,6.20
2008,08,30,09,38,4.70
2008,08,30,09,39,0.20
2008,08,30,09,40,3.30
2008,08,30,09,41,2.90
2008,08,30,09,42,3.30
2008,08,30,09,43,0.30
2008,08,30,09,44,1.80
2008,08,30,09,45,1.00
2008,08,30,09,46,2.30
2008,08,30,09,47,1.70
2008,08,30,09,48,2.00
2008,08,30,09,49,2.00
2008,08,30,09,50,0.40
2008,08,30,09,51,0.40
2008,08,30,09,52,0.30
2008,08,30,09,53,2.50
2008,08,30,09,54,1.90
2008,08,30,09,55,3.00
2008,08,30,09,56,0.30
2008,08,30,09,57,2.10
2008,08,30,09,58,0.10
2008,08,30,09,59,0.30
2008,08,30,10,00,1.70
2008,08,30,10,01,2.20
2008,08,30,10,02,2.00
2008,08,30,10,03,3.60
2008,08,30,10,04,2.80
2008,08,30,10,05,2.90
2008,08,30,10,06,0.20
2008,08,30,10,07,2.70
2008,08,30,10,08,4.40
2008,08,30,10,09,1.80
2008,08,30,10,10,3.60
2008,08,30,10,11,3.30
2008,08,30,10,12,4.30
2008,08,30,10,13,4.50
2008,08,30,10,14,5.90
2008,08,30,10,15,4.60
2008,08,30,10,16,5.50
2008,08,30,10,17,3.80
2008,08,30,10,18,5.80
2008,08,30,10,19,4.40
2008,08,30,10,20,5.80
2008,08,30,10,21,6.20
2008,08,30,10,22,5.90
2008,08,30,10,23,6.50
2008,08,30,10,24,4.30
2008,08,30,10,25,2.90
2008,08,30,10,26,4.30
2008,08,30,10,27,3.80
2008,08,30,10,28,3.80
2008,08,30,10,29,3.60
2008,08,30,10,30,5.20
2008,08,30,10,31,2.80
2008,08,30,10,32,3.80
2008,08,30,10,33,4.70
2008,08,30,10,34,4.80
2008,08,30,10,35,3.90
2008,08,30,10,36,5.50
2008,08,30,10,37,7.60
2008,08,30,10,38,7.30
2008,08,30,10,39,4.00
2008,08,30,10,40,4.90
2008,08,30,10,41,4.90
2008,08,30,10,42,6.40
2008,08,30,10,43,4.40
2008,08,30,10,44,4.20
2008,08,30,10,45,6.60
2008,08,30,10,46,5.80
2008,08,30,10,47,4.80
2008,08,30,10,48,4.90
2008,08,30,10,49,3.90
2008,08,30,10,50,4.30
2008,08,30,10,51,0.40
2008,08,30,10,52,4.70
2008,08,30,10,53,5.40
2008,08,30,10,54,5.30
2008,08,30,10,55,5.00
2008,08,30,10,56,5.70
2008,08,30,10,57,6.10
2008,08,30,10,58,5.10
2008,08,30,10,59,4.30
2008,08,30,11,00,5.10
2008,08,30,11,01,4.00
2008,08,30,11,02,4.20
2008,08,30,11,03,5.10
2008,08,30,11,04,5.30
2008,08,30,11,05,1.80
2008,08,30,11,06,4.90
2008,08,30,11,07,3.50
2008,08,30,11,08,4.60
2008,08,30,11,09,3.40
2008,08,30,11,10,6.70
2008,08,30,11,11,4.20
2008,08,30,11,12,4.40
2008,08,30,11,13,8.30
2008,08,30,11,14,4.20
2008,08,30,11,15,5.20
2008,08,30,11,16,4.10
2008,08,30,11,17,5.80
2008,08,30,11,18,6.10
2008,08,30,11,19,5.90
2008,08,30,11,20,5.70
2008,08,30,11,21,7.00
2008,08,30,11,22,8.10
2008,08,30,11,23,8.90
2008,08,30,11,24,7.60
2008,08,30,11,25,7.60
2008,08,30,11,26,5.10
2008,08,30,11,27,3.90
2008,08,30,11,28,7.00
2008,08,30,11,29,5.60
2008,08,30,11,30,6.30
2008,08,30,11,31,5.40
2008,08,30,11,32,4.80
2008,08,30,11,33,5.50
2008,08,30,11,34,6.30
2008,08,30,11,35,3.10
2008,08,30,11,36,4.00
2008,08,30,11,37,4.40
2008,08,30,11,38,6.30
2008,08,30,11,39,4.80
2008,08,30,11,40,2.70
2008,08,30,11,41,3.90
2008,08,30,11,42,5.60
2008,08,30,11,43,4.70
2008,08,30,11,44,6.50
2008,08,30,11,45,6.10
2008,08,30,11,46,5.50
2008,08,30,11,47,4.90
2008,08,30,11,48,6.00
2008,08,30,11,49,4.30
2008,08,30,11,50,6.50
2008,08,30,11,51,5.00
2008,08,30,11,52,6.00
2008,08,30,11,53,6.50
2008,08,30,11,54,6.00
2008,08,30,11,55,4.30
2008,08,30,11,56,4.30
2008,08,30,11,57,2.30
2008,08,30,11,58,3.20
2008,08,30,11,59,3.90
2008,08,30,12,00,3.80
2008,08,30,12,01,3.70
2008,08,30,12,02,3.90
2008,08,30,12,03,3.10
2008,08,30,12,04,4.10
2008,08,30,12,05,3.40
2008,08,30,12,06,3.50
2008,08,30,12,07,6.90
2008,08,30,12,08,4.10
2008,08,30,12,09,4.30
2008,08,30,12,10,5.60
2008,08,30,12,11,3.70
2008,08,30,12,12,3.10
2008,08,30,12,13,3.70
2008,08,30,12,14,3.30
2008,08,30,12,15,5.90
2008,08,30,12,16,4.90
2008,08,30,12,17,4.30
2008,08,30,12,18,4.60
2008,08,30,12,19,4.10
2008,08,30,12,20,1.70
2008,08,30,12,21,4.80
2008,08,30,12,22,3.60
2008,08,30,12,23,4.30
2008,08,30,12,24,4.40
2008,08,30,12,25,3.40
2008,08,30,12,26,4.20
2008,08,30,12,27,4.40
2008,08,30,12,28,4.80
2008,08,30,12,29,4.00
2008,08,30,12,30,1.80
2008,08,30,12,31,3.70
2008,08,30,12,32,3.70
2008,08,30,12,33,3.20
2008,08,30,12,34,3.70
2008,08,30,12,35,4.90
2008,08,30,12,36,4.20
2008,08,30,12,37,3.30
2008,08,30,12,38,4.60
2008,08,30,12,39,4.00
2008,08,30,12,40,6.00
2008,08,30,12,41,6.00
2008,08,30,12,42,4.80
2008,08,30,12,43,5.00
2008,08,30,12,44,7.30
2008,08,30,12,45,5.20
2008,08,30,12,46,3.10
2008,08,30,12,47,4.50
2008,08,30,12,48,4.90
2008,08,30,12,49,5.80
2008,08,30,12,50,5.70
2008,08,30,12,51,7.10
2008,08,30,12,52,6.40
2008,08,30,12,53,6.10
2008,08,30,12,54,4.60
2008,08,30,12,55,4.50
2008,08,30,12,56,4.70
2008,08,30,12,57,4.00
2008,08,30,12,58,3.00
2008,08,30,12,59,4.10
2008,08,30,13,00,4.30
2008,08,30,13,01,2.40
2008,08,30,13,02,3.30
2008,08,30,13,03,5.90
2008,08,30,13,04,5.10
2008,08,30,13,05,3.50
2008,08,30,13,06,3.60
2008,08,30,13,07,4.90
2008,08,30,13,08,2.60
2008,08,30,13,09,4.00
2008,08,30,13,10,4.70
2008,08,30,13,11,4.50
2008,08,30,13,12,4.20
2008,08,30,13,13,4.40
2008,08,30,13,14,3.60
2008,08,30,13,15,4.20
2008,08,30,13,16,5.10
2008,08,30,13,17,4.50
2008,08,30,13,18,3.20
2008,08,30,13,19,4.80
2008,08,30,13,20,3.20
2008,08,30,13,21,4.20
2008,08,30,13,22,4.60
2008,08,30,13,23,3.10
2008,08,30,13,24,4.60
2008,08,30,13,25,4.20
2008,08,30,13,26,4.30
2008,08,30,13,27,5.90
2008,08,30,13,28,5.70
2008,08,30,13,29,4.10
2008,08,30,13,30,4.10
2008,08,30,13,31,4.30
2008,08,30,13,32,2.70
2008,08,30,13,33,2.20
2008,08,30,13,34,1.00
2008,08,30,13,35,2.50
2008,08,30,13,36,2.80
2008,08,30,13,37,2.90
2008,08,30,13,38,3.30
2008,08,30,13,39,3.90
2008,08,30,13,40,1.80
2008,08,30,13,41,3.40
2008,08,30,13,42,2.20
2008,08,30,13,43,3.70
2008,08,30,13,44,3.30
2008,08,30,13,45,6.50
2008,08,30,13,46,5.60
2008,08,30,13,47,5.60
2008,08,30,13,48,5.90
2008,08,30,13,49,4.80
2008,08,30,13,50,6.50
2008,08,30,13,51,7.00
2008,08,30,13,52,5.70
2008,08,30,13,53,5.00
2008,08,30,13,54,3.40
2008,08,30,13,55,6.40
2008,08,30,13,56,9.60
2008,08,30,13,57,8.20
2008,08,30,13,58,5.00
2008,08,30,13,59,2.20
2008,08,30,14,00,4.00
2008,08,30,14,01,3.40
2008,08,30,14,02,4.00
2008,08,30,14,03,4.20
2008,08,30,14,04,3.00
2008,08,30,14,05,1.40
2008,08,30,14,06,1.50
2008,08,30,14,07,1.70
2008,08,30,14,08,2.00
2008,08,30,14,09,0.60
2008,08,30,14,10,0.10
2008,08,30,14,11,1.80
2008,08,30,14,12,4.00
2008,08,30,14,13,5.00
2008,08,30,14,14,2.20
2008,08,30,14,15,2.60
2008,08,30,14,16,1.50
2008,08,30,14,17,1.00
2008,08,30,14,18,1.50
2008,08,30,14,19,2.80
2008,08,30,14,20,5.00
2008,08,30,14,21,4.40
2008,08,30,14,22,5.20
2008,08,30,14,23,3.80
2008,08,30,14,24,3.90
2008,08,30,14,25,4.40
2008,08,30,14,26,0.90
2008,08,30,14,27,3.80
2008,08,30,14,28,0.90
2008,08,30,14,29,3.10
2008,08,30,14,30,3.00
2008,08,30,14,31,5.10
2008,08,30,14,32,8.40
2008,08,30,14,33,4.50
2008,08,30,14,34,4.10
2008,08,30,14,35,4.20
2008,08,30,14,36,6.20
2008,08,30,14,37,3.60
2008,08,30,14,38,3.40
2008,08,30,14,39,3.50
2008,08,30,14,40,5.50
2008,08,30,14,41,4.90
2008,08,30,14,42,5.30
2008,08,30,14,43,4.40
2008,08,30,14,44,5.90
2008,08,30,14,45,4.30
2008,08,30,14,46,6.00
2008,08,30,14,47,3.60
2008,08,30,14,48,3.90
2008,08,30,14,49,2.20
2008,08,30,14,50,3.20
2008,08,30,14,51,2.70
2008,08,30,14,52,2.40
2008,08,30,14,53,4.00
2008,08,30,14,54,3.00
2008,08,30,14,55,2.90
2008,08,30,14,56,2.70
2008,08,30,14,57,2.10
2008,08,30,14,58,2.80
2008,08,30,14,59,2.10
2008,08,30,15,00,1.50
2008,08,30,15,01,2.60
2008,08,30,15,02,2.80
2008,08,30,15,03,2.80
2008,08,30,15,04,1.90
2008,08,30,15,05,3.20
2008,08,30,15,06,3.70
2008,08,30,15,07,4.10
2008,08,30,15,08,1.10
2008,08,30,15,09,1.70
2008,08,30,15,10,0.20
2008,08,30,15,11,1.40
2008,08,30,15,12,2.00
2008,08,30,15,13,3.50
2008,08,30,15,14,3.80
2008,08,30,15,15,2.80
2008,08,30,15,16,2.30
2008,08,30,15,17,2.60
2008,08,30,15,18,2.70
2008,08,30,15,19,2.50
2008,08,30,15,20,2.20
2008,08,30,15,21,2.00
2008,08,30,15,22,1.00
2008,08,30,15,23,5.30
2008,08,30,15,24,3.90
2008,08,30,15,25,4.90
2008,08,30,15,26,3.10
2008,08,30,15,27,3.80
2008,08,30,15,28,3.70
2008,08,30,15,29,3.80
2008,08,30,15,30,3.00
2008,08,30,15,31,4.40
2008,08,30,15,32,2.60
2008,08,30,15,33,0.70
2008,08,30,15,34,0.20
2008,08,30,15,35,0.40
2008,08,30,15,36,0.10
2008,08,30,15,37,2.00
2008,08,30,15,38,0.90
2008,08,30,15,39,2.20
2008,08,30,15,40,0.30
2008,08,30,15,41,0.90
2008,08,30,15,42,2.60
2008,08,30,15,43,1.10
2008,08,30,15,44,4.00
2008,08,30,15,45,4.20
2008,08,30,15,46,2.30
2008,08,30,15,47,1.80
2008,08,30,15,48,0.40
2008,08,30,15,49,3.30
2008,08,30,15,50,1.50
2008,08,30,15,51,1.20
2008,08,30,15,52,0.40
2008,08,30,15,53,1.60
2008,08,30,15,54,0.10
2008,08,30,15,55,0.50
2008,08,30,15,56,3.00
2008,08,30,15,57,3.30
2008,08,30,15,58,3.10
2008,08,30,15,59,1.20
2008,08,30,16,00,2.60
2008,08,30,16,01,4.80
2008,08,30,16,02,5.20
2008,08,30,16,03,4.30
2008,08,30,16,04,1.00
2008,08,30,16,05,1.50
2008,08,30,16,06,4.00
2008,08,30,16,07,0.40
2008,08,30,16,08,2.70
2008,08,30,16,09,1.30
2008,08,30,16,10,1.00
2008,08,30,16,11,0.10
2008,08,30,16,12,0.40
2008,08,30,16,13,1.70
2008,08,30,16,14,1.00
2008,08,30,16,15,1.00
2008,08,30,16,16,1.60
2008,08,30,16,17,0.90
2008,08,30,16,18,0.80
2008,08,30,16,19,2.40
2008,08,30,16,20,1.70
2008,08,30,16,21,0.70
2008,08,30,16,22,1.50
2008,08,30,16,23,1.60
2008,08,30,16,24,0.50
2008,08,30,16,25,0.30
2008,08,30,16,26,1.80
2008,08,30,16,27,1.80
2008,08,30,16,28,0.60
2008,08,30,16,29,1.90
2008,08,30,16,30,1.30
2008,08,30,16,31,0.90
2008,08,30,16,32,0.70
2008,08,30,16,33,0.20
2008,08,30,16,34,2.20
2008,08,30,16,35,0.70
2008,08,30,16,36,5.10
2008,08,30,16,37,1.80
2008,08,30,16,38,0.40
2008,08,30,16,39,0.20
2008,08,30,16,40,1.90
2008,08,30,16,41,2.50
2008,08,30,16,42,3.60
2008,08,30,16,43,3.60
2008,08,30,16,44,2.90
2008,08,30,16,45,1.70
2008,08,30,16,46,0.50
2008,08,30,16,47,2.70
2008,08,30,16,48,1.20
2008,08,30,16,49,0.20
2008,08,30,16,50,0.50
2008,08,30,16,51,5.70
2008,08,30,16,52,1.90
2008,08,30,16,53,0.40
2008,08,30,16,54,0.40
2008,08,30,16,55,2.10
2008,08,30,16,56,2.40
2008,08,30,16,57,1.50
2008,08,30,16,58,0.80
2008,08,30,16,59,2.90
2008,08,30,17,00,0.70
2008,08,30,17,01,0.60
2008,08,30,17,02,0.40
2008,08,30,17,03,0.90
2008,08,30,17,04,0.30
2008,08,30,17,05,0.70
2008,08,30,17,06,1.00
2008,08,30,17,07,0.80
2008,08,30,17,08,2.60
2008,08,30,17,09,2.00
2008,08,30,17,10,0.20
2008,08,30,17,11,2.30
2008,08,30,17,12,0.20
2008,08,30,17,13,0.60
2008,08,30,17,14,0.90
2008,08,30,17,15,1.60
2008,08,30,17,16,2.60
2008,08,30,17,17,0.10
2008,08,30,17,18,1.40
2008,08,30,17,19,0.10
2008,08,30,17,20,0.20
2008,08,30,17,21,0.40
2008,08,30,17,22,2.50
2008,08,30,17,23,3.40
2008,08,30,17,24,2.00
2008,08,30,17,25,2.30
2008,08,30,17,26,1.90
2008,08,30,17,27,0.60
2008,08,30,17,28,3.80
2008,08,30,17,29,6.90
2008,08,30,17,30,6.50
2008,08,30,17,31,8.20
2008,08,30,17,32,6.20
2008,08,30,17,33,6.20
2008,08,30,17,34,6.40
2008,08,30,17,35,9.00
2008,08,30,17,36,3.80
2008,08,30,17,37,5.40
2008,08,30,17,38,5.80
2008,08,30,17,39,8.30
2008,08,30,17,40,6.30
2008,08,30,17,41,6.30
2008,08,30,17,42,13.30
2008,08,30,17,43,13.40
2008,08,30,17,44,7.40
2008,08,30,17,45,6.30
2008,08,30,17,46,6.60
2008,08,30,17,47,6.60
2008,08,30,17,48,4.70
2008,08,30,17,49,8.30
2008,08,30,17,50,5.00
2008,08,30,17,51,7.90
2008,08,30,17,52,10.40
2008,08,30,17,53,7.40
2008,08,30,17,54,9.00
2008,08,30,17,55,11.60
2008,08,30,17,56,9.60
2008,08,30,17,57,6.10
2008,08,30,17,58,12.30
2008,08,30,17,59,12.30
2008,08,30,18,00,5.50
2008,08,30,18,01,15.30
2008,08,30,18,02,13.10
2008,08,30,18,03,13.90
2008,08,30,18,04,9.10
2008,08,30,18,05,5.60
2008,08,30,18,06,5.20